TimeCEST,TemperatureF,Dew PointF,Humidity,Sea Level PressureIn,VisibilityMPH,Wind Direction,Wind SpeedMPH,Gust SpeedMPH,PrecipitationIn,Events,Conditions,WindDirDegrees,DateUTC
12:00 AM,51.8,35.6,54,30.24,-9999.0,Variable,1.2,-,N/A,,Clear,0,2013-10-08 22:00:00
12:30 AM,51.8,35.6,54,30.24,-9999.0,Variable,3.5,-,N/A,,Clear,0,2013-10-08 22:30:00
1:00 AM,42.8,35.6,76,30.24,-9999.0,Variable,3.5,-,N/A,,Clear,0,2013-10-08 23:00:00
1:30 AM,42.8,35.6,76,30.24,-9999.0,Variable,3.5,-,N/A,,Clear,0,2013-10-08 23:30:00
2:00 AM,41.0,35.6,81,30.24,-9999.0,North,4.6,-,N/A,,Clear,350,2013-10-09 00:00:00
2:30 AM,44.6,37.4,76,30.24,-9999.0,Variable,3.5,-,N/A,,Clear,0,2013-10-09 00:30:00
3:00 AM,44.6,35.6,71,30.24,-9999.0,North,4.6,-,N/A,,Clear,10,2013-10-09 01:00:00
3:30 AM,44.6,37.4,76,30.21,-9999.0,Variable,3.5,-,N/A,,Clear,0,2013-10-09 01:30:00
4:00 AM,42.8,37.4,81,30.21,-9999.0,Variable,3.5,-,N/A,,Clear,0,2013-10-09 02:00:00
4:30 AM,46.4,37.4,71,30.21,-9999.0,North,4.6,-,N/A,,Clear,360,2013-10-09 02:30:00
5:00 AM,46.4,37.4,71,30.21,-9999.0,North,5.8,-,N/A,,Clear,350,2013-10-09 03:00:00
5:30 AM,46.4,39.2,76,30.21,-9999.0,Variable,3.5,-,N/A,,Clear,0,2013-10-09 03:30:00
6:00 AM,46.4,37.4,71,30.21,-9999.0,Variable,2.3,-,N/A,,Clear,0,2013-10-09 04:00:00
6:30 AM,46.4,37.4,71,30.18,-9999.0,Variable,1.2,-,N/A,,Clear,0,2013-10-09 04:30:00
7:00 AM,51.8,37.4,58,30.18,-9999.0,Variable,3.5,-,N/A,,Clear,0,2013-10-09 05:00:00
7:30 AM,51.8,37.4,58,30.18,-9999.0,ENE,5.8,-,N/A,,Clear,60,2013-10-09 05:30:00
8:00 AM,51.8,37.4,58,30.18,-9999.0,ENE,8.1,-,N/A,,Clear,70,2013-10-09 06:00:00
8:30 AM,51.8,37.4,58,30.18,-9999.0,East,5.8,-,N/A,,Clear,80,2013-10-09 06:30:00
9:00 AM,53.6,39.2,58,30.18,-9999.0,East,6.9,-,N/A,,Clear,90,2013-10-09 07:00:00
9:30 AM,53.6,39.2,58,30.18,-9999.0,East,5.8,-,N/A,,Clear,80,2013-10-09 07:30:00
10:00 AM,55.4,39.2,54,30.18,-9999.0,East,8.1,-,N/A,,Clear,90,2013-10-09 08:00:00
10:30 AM,57.2,42.8,59,30.18,-9999.0,East,6.9,-,N/A,,Clear,100,2013-10-09 08:30:00
11:00 AM,57.2,42.8,59,30.18,-9999.0,ESE,9.2,-,N/A,,Clear,120,2013-10-09 09:00:00
11:30 AM,59.0,44.6,59,30.18,-9999.0,ESE,9.2,-,N/A,,Clear,120,2013-10-09 09:30:00
12:00 PM,57.2,46.4,67,30.15,6.2,ESE,9.2,-,N/A,,Mostly Cloudy,120,2013-10-09 10:00:00
12:30 PM,57.2,46.4,67,30.15,6.2,ESE,6.9,-,N/A,,Overcast,120,2013-10-09 10:30:00
1:00 PM,57.2,46.4,67,30.15,6.2,SE,6.9,-,N/A,,Mostly Cloudy,130,2013-10-09 11:00:00
1:30 PM,59.0,46.4,63,30.12,6.2,ESE,8.1,-,N/A,,Mostly Cloudy,120,2013-10-09 11:30:00
2:00 PM,59.0,46.4,63,30.12,-9999.0,ESE,9.2,-,N/A,,Clear,120,2013-10-09 12:00:00
2:30 PM,60.8,46.4,59,30.12,-9999.0,SE,10.4,-,N/A,,Clear,130,2013-10-09 12:30:00
3:00 PM,59.0,44.6,59,30.09,6.2,ESE,6.9,-,N/A,,Mostly Cloudy,120,2013-10-09 13:00:00
3:30 PM,60.8,46.4,59,30.09,6.2,East,8.1,-,N/A,,Mostly Cloudy,90,2013-10-09 13:30:00
4:00 PM,60.8,46.4,59,30.09,-9999.0,ESE,10.4,-,N/A,,Clear,110,2013-10-09 14:00:00
4:30 PM,60.8,46.4,59,30.06,6.2,ESE,9.2,-,N/A,,Mostly Cloudy,110,2013-10-09 14:30:00
5:00 PM,59.0,46.4,63,30.06,6.2,ESE,10.4,-,N/A,,Mostly Cloudy,110,2013-10-09 15:00:00
5:30 PM,59.0,46.4,63,30.06,5.0,ESE,8.1,-,N/A,,Mostly Cloudy,110,2013-10-09 15:30:00
6:00 PM,59.0,44.6,59,30.06,6.2,ESE,8.1,-,N/A,,Mostly Cloudy,110,2013-10-09 16:00:00
6:30 PM,57.2,44.6,63,30.06,6.2,ESE,6.9,-,N/A,,Mostly Cloudy,110,2013-10-09 16:30:00
7:00 PM,57.2,44.6,63,30.06,6.2,ESE,5.8,-,N/A,,Mostly Cloudy,110,2013-10-09 17:00:00
7:30 PM,57.2,44.6,63,30.06,6.2,ESE,4.6,-,N/A,,Mostly Cloudy,110,2013-10-09 17:30:00
8:00 PM,55.4,46.4,72,30.06,6.2,ESE,5.8,-,N/A,,Mostly Cloudy,120,2013-10-09 18:00:00
8:30 PM,55.4,46.4,72,30.04,6.2,SE,5.8,-,N/A,,Mostly Cloudy,130,2013-10-09 18:30:00
9:00 PM,55.4,46.4,72,30.04,6.2,SE,5.8,-,N/A,Rain,Light Rain,140,2013-10-09 19:00:00
9:30 PM,55.4,48.2,77,30.04,5.0,SE,6.9,-,N/A,Rain,Light Rain,140,2013-10-09 19:30:00
10:00 PM,53.6,50.0,88,30.04,5.0,SSW,4.6,-,N/A,Rain,Light Rain,200,2013-10-09 20:00:00
10:30 PM,53.6,50.0,88,30.04,5.0,South,4.6,-,N/A,Rain,Light Rain,190,2013-10-09 20:30:00
11:00 PM,51.8,51.8,100,30.04,4.3,Variable,2.3,-,N/A,Rain,Light Rain,0,2013-10-09 21:00:00
11:30 PM,51.8,51.8,100,30.04,3.7,Calm,Calm,-,N/A,,Overcast,0,2013-10-09 21:30:00